BAW17R EGLL-KJFK

Flight info

Callsign BAW17R
Flight time N/A
Altitude 38000
Route CPT DCT DIDZA L9 OKSAW DCT BIBPE DCT BUCGO DCT FELCA DCT NICXI DCT BAKUR DCT NEBIN/M083F390 NATB BUDAR/N0478F400 DCT ALLEX DCT PLYMM PARCH4
Aircraft B772/H-SDE2E3FGHIJ5LORVWXY/LB1D1

Departure

Time 2026-04-30 12:01
Airport London Heathrow Airport (EGLL)

Arrival

Time N/A
Airport John F. Kennedy International Airport (KJFK)
Time Latitude Longitude Altitude Speed Heading
2026-04-30 11:13 51.46917 -0.47727 90 ft 0 kts 89°
2026-04-30 11:51 51.46917 -0.47732 90 ft 3 kts 89°
2026-04-30 11:51 51.46917 -0.47775 90 ft 4 kts 89°
2026-04-30 11:52 51.46917 -0.47811 90 ft 2 kts 89°
2026-04-30 11:52 51.46921 -0.47849 94 ft 4 kts 128°
2026-04-30 11:52 51.46940 -0.47868 90 ft 3 kts 179°
2026-04-30 11:52 51.46966 -0.47869 93 ft 4 kts 179°
2026-04-30 11:53 51.46972 -0.47869 90 ft 0 kts 179°
2026-04-30 11:56 51.46967 -0.47869 90 ft 2 kts 179°
2026-04-30 11:56 51.46942 -0.47868 90 ft 5 kts 179°
2026-04-30 11:56 51.46897 -0.47867 93 ft 8 kts 179°
2026-04-30 11:56 51.46833 -0.47867 90 ft 10 kts 180°
2026-04-30 11:57 51.46767 -0.47866 94 ft 10 kts 180°
2026-04-30 11:57 51.46700 -0.47866 94 ft 8 kts 179°
2026-04-30 11:57 51.46658 -0.47892 94 ft 7 kts 243°
2026-04-30 11:57 51.46654 -0.47971 91 ft 7 kts 269°
2026-04-30 11:58 51.46653 -0.48053 95 ft 8 kts 269°
2026-04-30 11:58 51.46653 -0.48159 91 ft 11 kts 270°
2026-04-30 11:58 51.46653 -0.48289 93 ft 13 kts 270°
2026-04-30 11:58 51.46652 -0.48443 94 ft 15 kts 270°
2026-04-30 11:59 51.46652 -0.48611 93 ft 15 kts 270°
2026-04-30 11:59 51.46639 -0.48732 93 ft 10 kts 232°
2026-04-30 11:59 51.46577 -0.48778 90 ft 10 kts 196°
2026-04-30 11:59 51.46509 -0.48773 95 ft 10 kts 155°
2026-04-30 12:00 51.46480 -0.48695 94 ft 7 kts 96°
2026-04-30 12:00 51.46479 -0.48636 92 ft 14 kts 91°
2026-04-30 12:00 51.46480 -0.48091 92 ft 85 kts 89°
2026-04-30 12:00 51.46486 -0.46776 99 ft 148 kts 90°
2026-04-30 12:01 51.46494 -0.45058 731 ft 156 kts 91°
2026-04-30 12:01 51.46522 -0.43295 1579 ft 160 kts 90°
2026-04-30 12:01 51.46545 -0.41402 1926 ft 179 kts 95°
2026-04-30 12:01 51.46116 -0.39415 2031 ft 204 kts 129°
2026-04-30 12:02 51.44883 -0.38075 2258 ft 232 kts 160°
2026-04-30 12:02 51.43218 -0.38028 2819 ft 250 kts 192°
2026-04-30 12:02 51.41676 -0.39387 3604 ft 260 kts 216°
2026-04-30 12:02 51.40368 -0.41439 4149 ft 267 kts 220°
2026-04-30 12:03 51.39069 -0.43599 4671 ft 270 kts 220°
2026-04-30 12:03 51.36517 -0.47998 5526 ft 273 kts 221°
2026-04-30 12:03 51.35340 -0.50381 5739 ft 279 kts 239°
2026-04-30 12:04 51.34972 -0.53491 5911 ft 296 kts 272°
2026-04-30 12:04 51.35605 -0.56617 5980 ft 296 kts 292°
2026-04-30 12:04 51.36408 -0.59675 6064 ft 300 kts 288°
2026-04-30 12:04 51.37107 -0.62808 6788 ft 298 kts 286°
2026-04-30 12:05 51.37773 -0.65945 7511 ft 298 kts 286°
2026-04-30 12:05 51.38425 -0.69067 8136 ft 301 kts 286°
2026-04-30 12:05 51.39091 -0.72288 8763 ft 305 kts 285°
2026-04-30 12:05 51.39759 -0.75529 9390 ft 308 kts 286°
2026-04-30 12:06 51.40436 -0.78813 10003 ft 312 kts 286°
2026-04-30 12:06 51.41120 -0.82142 10500 ft 320 kts 286°
2026-04-30 12:06 51.41838 -0.85655 10648 ft 342 kts 286°
2026-04-30 12:06 51.42588 -0.89347 10832 ft 364 kts 286°
2026-04-30 12:07 51.43390 -0.93285 11310 ft 377 kts 286°
2026-04-30 12:07 51.44214 -0.97321 12014 ft 384 kts 286°
2026-04-30 12:07 51.45045 -1.01413 12920 ft 388 kts 286°
2026-04-30 12:07 51.45888 -1.05564 13846 ft 393 kts 286°
2026-04-30 12:08 51.46734 -1.09744 14701 ft 397 kts 286°
2026-04-30 12:08 51.47590 -1.13987 15524 ft 402 kts 285°
2026-04-30 12:08 51.48511 -1.18250 16277 ft 409 kts 291°
2026-04-30 12:08 51.49882 -1.22302 17034 ft 418 kts 302°
2026-04-30 12:09 51.51701 -1.25983 17880 ft 425 kts 313°
2026-04-30 12:09 51.53883 -1.29238 18695 ft 430 kts 317°
2026-04-30 12:09 51.56119 -1.32461 19390 ft 436 kts 316°
2026-04-30 12:09 51.58353 -1.35807 20138 ft 440 kts 314°
2026-04-30 12:10 51.60392 -1.39497 20882 ft 443 kts 306°
2026-04-30 12:10 51.62179 -1.43564 21589 ft 447 kts 300°
2026-04-30 12:10 51.63694 -1.47961 22251 ft 452 kts 295°
2026-04-30 12:10 51.65120 -1.52449 22881 ft 458 kts 295°
2026-04-30 12:11 51.66600 -1.57044 23610 ft 463 kts 295°
2026-04-30 12:11 51.68106 -1.61647 24240 ft 467 kts 295°
2026-04-30 12:11 51.69445 -1.66433 24857 ft 468 kts 287°
2026-04-30 12:11 51.70418 -1.71442 25450 ft 469 kts 281°
2026-04-30 12:12 51.71071 -1.76605 26011 ft 469 kts 274°
2026-04-30 12:12 51.71415 -1.81843 26567 ft 471 kts 271°
2026-04-30 12:12 51.71742 -1.87077 27069 ft 475 kts 272°
2026-04-30 12:12 51.72099 -1.92384 27597 ft 479 kts 272°
2026-04-30 12:13 51.72478 -1.97758 28130 ft 482 kts 272°
2026-04-30 12:13 51.72863 -2.03156 28652 ft 484 kts 272°
2026-04-30 12:13 51.73248 -2.08565 29159 ft 487 kts 272°
2026-04-30 12:13 51.73630 -2.14001 29611 ft 490 kts 272°
2026-04-30 12:14 51.74011 -2.19481 30042 ft 493 kts 272°
2026-04-30 12:14 51.74389 -2.24989 30432 ft 495 kts 272°
2026-04-30 12:14 51.74767 -2.30532 30792 ft 497 kts 272°
2026-04-30 12:14 51.75145 -2.36097 31139 ft 499 kts 272°
2026-04-30 12:15 51.75516 -2.41607 31457 ft 501 kts 272°
2026-04-30 12:15 51.75889 -2.47189 31917 ft 498 kts 272°
2026-04-30 12:15 51.76258 -2.52740 32365 ft 497 kts 272°
2026-04-30 12:15 51.76623 -2.58269 32683 ft 497 kts 272°
2026-04-30 12:16 51.76986 -2.63826 32979 ft 498 kts 272°
2026-04-30 12:16 51.77346 -2.69390 33317 ft 498 kts 272°
2026-04-30 12:16 51.77703 -2.74947 33689 ft 497 kts 272°
2026-04-30 12:16 51.78058 -2.80513 34021 ft 497 kts 272°
2026-04-30 12:17 51.78759 -2.91593 34863 ft 495 kts 272°
2026-04-30 12:17 51.79106 -2.97151 35148 ft 496 kts 272°
2026-04-30 12:17 51.79450 -3.02689 35456 ft 495 kts 272°
2026-04-30 12:18 51.79786 -3.08154 35795 ft 493 kts 272°
2026-04-30 12:18 51.80123 -3.13658 36131 ft 492 kts 272°
2026-04-30 12:18 51.80455 -3.19150 36416 ft 491 kts 272°
2026-04-30 12:18 51.80785 -3.24640 36688 ft 491 kts 272°
2026-04-30 12:19 51.81112 -3.30121 36992 ft 489 kts 272°
2026-04-30 12:19 51.81435 -3.35583 37332 ft 487 kts 272°
2026-04-30 12:19 51.81755 -3.41030 37634 ft 486 kts 272°
2026-04-30 12:19 51.82073 -3.46465 37924 ft 485 kts 272°
2026-04-30 12:20 51.82391 -3.51925 38058 ft 487 kts 272°
2026-04-30 12:20 51.82872 -3.57365 38128 ft 491 kts 278°
2026-04-30 12:20 51.84288 -3.68173 38136 ft 488 kts 279°
2026-04-30 12:21 51.85717 -3.78832 38141 ft 487 kts 279°
2026-04-30 12:21 51.87111 -3.89539 38139 ft 486 kts 279°
2026-04-30 12:22 51.88474 -4.00249 38125 ft 485 kts 279°
2026-04-30 12:22 51.89823 -4.10950 38116 ft 485 kts 278°
2026-04-30 12:23 51.91161 -4.21648 38114 ft 484 kts 278°
2026-04-30 12:23 51.92267 -4.30544 38099 ft 484 kts 278°
2026-04-30 12:24 51.93804 -4.43001 38122 ft 485 kts 278°
2026-04-30 12:24 51.94895 -4.51922 38105 ft 486 kts 278°
2026-04-30 12:25 51.96203 -4.62686 38082 ft 487 kts 278°
2026-04-30 12:25 51.97502 -4.73467 38101 ft 488 kts 278°
2026-04-30 12:26 51.98794 -4.84274 38096 ft 488 kts 278°
2026-04-30 12:26 52.00082 -4.95124 38106 ft 489 kts 277°
2026-04-30 12:27 52.01894 -5.05719 38087 ft 494 kts 289°
2026-04-30 12:27 52.04936 -5.15728 38099 ft 497 kts 298°
2026-04-30 12:28 52.08544 -5.25312 38098 ft 497 kts 299°
2026-04-30 12:28 52.12144 -5.34926 38096 ft 497 kts 298°
2026-04-30 12:29 52.15687 -5.44581 38099 ft 497 kts 298°
2026-04-30 12:29 52.19218 -5.54272 38103 ft 496 kts 298°
2026-04-30 12:30 52.22697 -5.63900 38098 ft 495 kts 296°
2026-04-30 12:30 52.25403 -5.74145 38107 ft 490 kts 284°
2026-04-30 12:31 52.27271 -5.84825 38106 ft 489 kts 283°
2026-04-30 12:31 52.29107 -5.95528 38131 ft 490 kts 282°
2026-04-30 12:32 52.30968 -6.06255 38120 ft 490 kts 283°
2026-04-30 12:32 52.32841 -6.16992 38122 ft 491 kts 283°
2026-04-30 12:33 52.34698 -6.27669 38123 ft 491 kts 283°
2026-04-30 12:33 52.36568 -6.38491 38126 ft 491 kts 283°
2026-04-30 12:34 52.38401 -6.49167 38136 ft 491 kts 282°
2026-04-30 12:34 52.40243 -6.59971 38123 ft 492 kts 282°
2026-04-30 12:35 52.42074 -6.70777 38120 ft 492 kts 282°
2026-04-30 12:35 52.43893 -6.81577 38117 ft 492 kts 282°
2026-04-30 12:36 52.45701 -6.92381 38120 ft 491 kts 282°
2026-04-30 12:36 52.47499 -7.03189 38141 ft 493 kts 282°
2026-04-30 12:37 52.49293 -7.14048 38120 ft 492 kts 281°
2026-04-30 12:37 52.51073 -7.24888 38109 ft 491 kts 281°
2026-04-30 12:38 52.52838 -7.35702 38108 ft 490 kts 281°
2026-04-30 12:38 52.54591 -7.46514 38112 ft 490 kts 281°
2026-04-30 12:39 52.56328 -7.57303 38111 ft 494 kts 281°
2026-04-30 12:39 52.58079 -7.68252 38089 ft 495 kts 281°
2026-04-30 12:40 52.59821 -7.79195 38099 ft 493 kts 281°
2026-04-30 12:40 52.61543 -7.90088 38098 ft 491 kts 281°
2026-04-30 12:41 52.63248 -8.00957 38106 ft 490 kts 281°
2026-04-30 12:41 52.64944 -8.11840 38095 ft 491 kts 281°
2026-04-30 12:42 52.66632 -8.22743 38089 ft 491 kts 281°
2026-04-30 12:42 52.68313 -8.33674 38091 ft 492 kts 281°
2026-04-30 12:43 52.69985 -8.44615 38091 ft 492 kts 281°
2026-04-30 12:43 52.71639 -8.55519 38094 ft 495 kts 281°
2026-04-30 12:44 52.73311 -8.66624 38102 ft 496 kts 280°
2026-04-30 12:44 52.74960 -8.77639 38100 ft 494 kts 280°
2026-04-30 12:45 52.76588 -8.88588 38080 ft 495 kts 280°
2026-04-30 12:45 52.78214 -8.99606 38086 ft 493 kts 280°
2026-04-30 12:46 52.79829 -9.10620 38106 ft 492 kts 280°
2026-04-30 12:46 52.81430 -9.21625 38092 ft 493 kts 280°
2026-04-30 12:47 52.83022 -9.32650 38087 ft 493 kts 280°
2026-04-30 12:47 52.84597 -9.43632 38068 ft 494 kts 280°
2026-04-30 12:48 52.86172 -9.54694 38070 ft 494 kts 280°
2026-04-30 12:48 52.87739 -9.65767 38104 ft 494 kts 280°
2026-04-30 12:49 52.89297 -9.76876 38078 ft 496 kts 280°
2026-04-30 12:49 52.90849 -9.88012 38075 ft 496 kts 279°
2026-04-30 12:50 52.92390 -9.99160 38056 ft 496 kts 279°
2026-04-30 12:50 52.93917 -10.10281 38074 ft 494 kts 279°
2026-04-30 12:51 52.95431 -10.21390 38088 ft 493 kts 279°
2026-04-30 12:51 52.96931 -10.32492 38087 ft 494 kts 279°
2026-04-30 12:52 52.98428 -10.43655 38081 ft 497 kts 279°
2026-04-30 12:52 52.99911 -10.54797 38071 ft 498 kts 279°
2026-04-30 12:53 53.01397 -10.66037 38069 ft 498 kts 279°
2026-04-30 12:53 53.02867 -10.77245 38069 ft 496 kts 279°
2026-04-30 12:54 53.04321 -10.88420 38072 ft 494 kts 279°
2026-04-30 12:54 53.05760 -10.99581 38075 ft 494 kts 279°
2026-04-30 12:55 53.07189 -11.10748 38080 ft 494 kts 278°
2026-04-30 12:55 53.08611 -11.21947 38074 ft 495 kts 278°
2026-04-30 12:56 53.10024 -11.33171 38087 ft 496 kts 279°
2026-04-30 12:56 53.11431 -11.44434 38069 ft 497 kts 278°
2026-04-30 12:57 53.12829 -11.55707 38079 ft 497 kts 278°
2026-04-30 12:57 53.14209 -11.66937 38079 ft 498 kts 278°
2026-04-30 12:58 53.15587 -11.78247 38077 ft 498 kts 278°
2026-04-30 12:58 53.16954 -11.89559 38083 ft 498 kts 278°
2026-04-30 12:59 53.18313 -12.00896 38071 ft 497 kts 278°
2026-04-30 12:59 53.19655 -12.12193 38070 ft 496 kts 278°
2026-04-30 13:00 53.20984 -12.23481 38081 ft 496 kts 278°
2026-04-30 13:00 53.22293 -12.34694 38080 ft 496 kts 278°
2026-04-30 13:01 53.23602 -12.45999 38091 ft 496 kts 278°
2026-04-30 13:01 53.24901 -12.57328 38087 ft 497 kts 278°
2026-04-30 13:02 53.26192 -12.68676 38083 ft 498 kts 278°
2026-04-30 13:02 53.27474 -12.80050 38091 ft 498 kts 278°
2026-04-30 13:03 53.28744 -12.91422 38087 ft 498 kts 278°
2026-04-30 13:03 53.29997 -13.02741 38084 ft 498 kts 278°
2026-04-30 13:04 53.31247 -13.14143 38079 ft 498 kts 278°
2026-04-30 13:04 53.32484 -13.25533 38087 ft 497 kts 278°
2026-04-30 13:05 53.33709 -13.36917 38094 ft 497 kts 278°
2026-04-30 13:06 53.35526 -13.54005 38087 ft 497 kts 278°
2026-04-30 13:06 53.36722 -13.65389 38099 ft 496 kts 278°
2026-04-30 13:07 53.37907 -13.76773 38099 ft 496 kts 278°
2026-04-30 13:07 53.39075 -13.88099 38103 ft 496 kts 278°
2026-04-30 13:08 53.40238 -13.99494 38094 ft 496 kts 278°
2026-04-30 13:08 53.41391 -14.10913 38088 ft 496 kts 278°
2026-04-30 13:09 53.42532 -14.22317 38101 ft 496 kts 278°
2026-04-30 13:09 53.43661 -14.33714 38107 ft 495 kts 277°
2026-04-30 13:10 53.44778 -14.45102 38086 ft 495 kts 277°
2026-04-30 13:10 53.45698 -14.54580 38102 ft 494 kts 277°
2026-04-30 13:11 53.46793 -14.65970 38122 ft 496 kts 278°